一网星座-0269星 (ONEWEB-0269 )

导读

ONEWEB-0269是英国OneWeb星座项目中的低轨通信卫星,于2021年7月1日发射升空,是OneWeb全球卫星互联网组网的重要组成单元。OneWeb由英国政府参股,计划通过近地轨道卫星群,为全球偏远地区、海陆空交通节点提供高速低延迟宽带服务,ONEWEB-0269为后续OneWeb实现全球覆盖的商业运营奠定了组网基础,推动了全球卫星互联网基础设施的建设进程。

Basic Information
目录编号:
48987
目录名称:
ONEWEB-0269
国际标识:
2021-060W
轨道中心:
EARTH
卫星名称:
一网星座-0269星
卫星全名:
一网星座-0269星 (ONEWEB-0269 )
卫星状态:
在轨 (已飞行1853 天)
发射日期:
2021-07-01 UTC
国别 :
英国 (GB)
星等 :
--
Orbit Information
数据来源 国际轨道数据 AOE轨道数据
星历时间 2026-07-27T09:32:53+0800
22小时前
查看轨道信息
2026-07-27T08:00:00+0800
1天前
查看轨道信息
半长轴 7575.893km 7575.886km
偏心率 0.000188 0.0001546
轨道倾角 87.907° 87.908°
近地点辐角 88.985° 89.073°
升交点赤经 220.859° 220.873°
平近点角 271.150° 325.506°
近地点 1196.331km 1196.577km
远地点 1199.181km 1198.921km
周期 109.373分钟 109.373分钟
每日圈数 13.165945 13.165965
Detailed Information
平衡模式:
三轴稳定
覆盖范围:
全球
运营商:
一网卫星公司
运营商所在国:
英国
制造商(研发单位):
一网卫星公司
制造商所在国:
英国
使用方式:
暂无
Satellite Introduction
OneWeb卫星网络由648颗重约125公斤的微型卫星组成,运行在1200公里的轨道上。 每颗卫星都能够提供至少每秒8千兆位的吞吐量,以使用其高吞吐量的Ku频段有效载荷为家庭和移动平台提供互联网接入。该卫星仍在工作。
2D Orbit Map
3D Orbit Map
Orbit Altitude Analysis Chart
Orbit Inclination Analysis Chart
Orbit Comprehensive Analysis Chart
View Comprehensive Chart